sat.trackr.live / text

‹ back to catalog

STARLINK-37075

NORAD 68255 · 2026-054Z

PAYLOAD ACTIVE UNKNOWN

§ Identity

Operator
Country
US
Launch date
2026-03-17
Launch site
AFETR
Launch vehicle
Mass (kg)
RCS (m²)

Purposes: comms

External: N2YO · Heavens-Above · Gunter

§ Orbital elements

Epoch: 2026-05-25T03:34:27.698880Z

Period
93.37 min
Inclination
53.1595°
Eccentricity
0.0001435
Mean motion
15.42193522 rev/d
Perigee alt
438.7 km
Apogee alt
440.6 km
Semi-major
6,817.8 km
B*
6.6150e-4
RAAN
299.2184°
Arg perigee
85.4294°
Mean anomaly
274.6876°
Rev number
1,073

§ Raw data

STARLINK-370751 68255U 26054Z   26145.14893170  .00028513  00000+0  66150-3 0  99932 68255  53.1595 299.2184 0001435  85.4294 274.6876 15.42193522 10731

JSON: /api/v1/satellites/68255 · /tle

For live sub-satellite position, see the globe view (requires WebGL).

§ Visibility from observer

Set your observer location to see the next 7 days of passes ≥ 10°. The values pass through the URL so the page stays shareable.

No JS? Fill the form by hand. The geolocation button needs JavaScript.